Marietta, GA

4:07 PM EST on February 24, 2017 (GMT -0500)
Dobbins Air Force Base

Weather History for KMGE - August, 2013

Change the Weather History Date:

Sunday, August 11, 2013

  Actual Average Record
Temperature  
Mean Temperature 80 °F -  
Max Temperature 89 °F 85 °F 96 °F (2007)
Min Temperature 71 °F 68 °F 64 °F (2004)
Cooling Degree Days 15    
Growing Degree Days 30 (Base 50)    
Moisture  
Dew Point 73 °F    
Average Humidity 85    
Maximum Humidity 100    
Minimum Humidity 57    
Precipitation  
Precipitation 0.00 in - - ()
Sea Level Pressure  
Sea Level Pressure 30.14 in    
Wind  
Wind Speed 2 mph (SW)    
Max Wind Speed 8 mph    
Max Gust Speed -    
Visibility 10 miles    
Events      
Averages and records for this station are not official NWS values.
T = Trace of Precipitation, MM = Missing Value Source: NWS Daily Summary

Daily Weather History Graph

Daily Weather History Graph

Search for Another Location

Airport or City:

Trip Planner

Search our weather history database for the weather conditions in past years. The results will help you decide how hot, cold, wet, or windy it might be!

Date:

Astronomy

Aug. 11, 2013 Rise Set
Actual Time 6:57 AM EDT 8:28 PM EDT
Civil Twilight 6:30 AM EDT 8:55 PM EDT
Nautical Twilight 5:58 AM EDT 9:27 PM EDT
Astronomical Twilight 5:24 AM EDT 10:00 PM EDT
Moon 11:27 AM EDT (8/11) 11:01 PM EDT (8/11)
Length of Visible Light 14h 25m
Length of Day
13h 31m
Waxing Crescent, 22% of the Moon is Illuminated
Aug 11
Waxing Crescent
Aug 14
First Quarter
Aug 20
Full
Aug 28
Last Quarter
Sep 5
New

Hourly Weather History & Observations

Time (EDT) Temp. Heat Index Dew Point Humidity Pressure Visibility Wind Dir Wind Speed Gust Speed Precip Events Conditions
12:08 AM 73.4 °F - 73.4 °F 100% 30.15 in 10.0 mi Calm Calm - N/A   Clear
12:53 AM 73.4 °F - 73.4 °F 100% 30.15 in 8.0 mi Variable 1.2 mph - N/A   Clear
12:58 AM 73.4 °F - 73.4 °F 100% 30.12 in 9.0 mi NNE 1.2 mph - N/A   Clear
1:03 AM 73.4 °F - 73.4 °F 100% 30.15 in 9.0 mi Calm Calm - N/A   Clear
1:23 AM 73.4 °F - 73.4 °F 100% 30.16 in 8.0 mi SSE 3.5 mph - N/A   Clear
1:33 AM 71.6 °F - 71.6 °F 100% 30.16 in 10.0 mi Calm Calm - N/A   Clear
1:58 AM 72.5 °F - 72.5 °F 100% 30.13 in 10.0 mi SSE 1.2 mph - N/A   Clear
2:58 AM 72.3 °F - 72.3 °F 100% 30.12 in 10.0 mi South 2.3 mph - N/A   Scattered Clouds
3:13 AM 71.6 °F - 71.6 °F 100% 30.15 in 9.0 mi Calm Calm - N/A   Partly Cloudy
3:23 AM 71.6 °F - 71.6 °F 100% 30.15 in 10.0 mi Calm Calm - N/A   Clear
3:28 AM 71.6 °F - 71.6 °F 100% 30.15 in 8.0 mi Calm Calm - N/A   Clear
3:38 AM 71.6 °F - 71.6 °F 100% 30.15 in 10.0 mi Calm Calm - N/A   Partly Cloudy
3:58 AM 72.0 °F - 72.0 °F 100% 30.12 in 10.0 mi Calm Calm - N/A   Partly Cloudy
4:58 AM 72.5 °F - 72.1 °F 99% 30.13 in 10.0 mi Calm Calm - N/A   Overcast
5:58 AM 72.1 °F - 71.6 °F 98% 30.14 in 10.0 mi South 2.3 mph - N/A   Partly Cloudy
6:58 AM 71.2 °F - 71.2 °F 100% 30.16 in 10.0 mi Calm Calm - N/A   Mostly Cloudy
7:58 AM 72.9 °F - 72.7 °F 99% 30.16 in 10.0 mi Calm Calm - N/A   Mostly Cloudy
8:58 AM 76.5 °F - 73.2 °F 90% 30.17 in 10.0 mi SW 5.8 mph - N/A   Mostly Cloudy
9:16 AM 77.0 °F - 73.4 °F 89% 30.20 in 10.0 mi WSW 3.5 mph - N/A   Mostly Cloudy
9:58 AM 79.7 °F - 74.8 °F 85% 30.18 in 10.0 mi West 6.9 mph - N/A   Scattered Clouds
10:58 AM 82.4 °F 88.4 °F 73.8 °F 75% 30.19 in 10.0 mi WSW 5.8 mph - N/A   Scattered Clouds
11:41 AM 84.2 °F 90.9 °F 73.4 °F 70% 30.20 in 10.0 mi Variable 3.5 mph - N/A   Mostly Cloudy
11:58 AM 84.6 °F 92.1 °F 74.3 °F 71% 30.17 in 10.0 mi WSW 4.6 mph - N/A   Mostly Cloudy
12:41 PM 86.0 °F 95.1 °F 75.2 °F 70% 30.19 in 10.0 mi Variable 2.3 mph - N/A   Mostly Cloudy
12:58 PM 85.5 °F 92.6 °F 73.6 °F 67% 30.15 in 10.0 mi SW 6.9 mph - N/A   Mostly Cloudy
1:58 PM 87.3 °F 94.5 °F 72.7 °F 62% 30.14 in 10.0 mi SSW 8.1 mph - N/A   Mostly Cloudy
2:58 PM 87.3 °F 94.5 °F 72.7 °F 62% 30.12 in 10.0 mi SSW 6.9 mph - N/A   Mostly Cloudy
3:58 PM 89.1 °F 96.0 °F 72.1 °F 57% 30.10 in 10.0 mi SW 8.1 mph - N/A   Mostly Cloudy
4:58 PM 89.1 °F 96.0 °F 72.1 °F 57% 30.09 in 10.0 mi SSW 6.9 mph - N/A   Scattered Clouds
5:58 PM 88.9 °F 96.6 °F 73.0 °F 59% 30.07 in 10.0 mi SSW 8.1 mph - N/A   Scattered Clouds
6:58 PM 86.9 °F 93.7 °F 72.3 °F 62% 30.08 in 10.0 mi SSW 5.8 mph - N/A   Scattered Clouds
7:58 PM 84.7 °F 91.0 °F 72.9 °F 67% 30.09 in 10.0 mi SSW 5.8 mph - N/A   Scattered Clouds
8:58 PM 82.6 °F 88.3 °F 73.2 °F 73% 30.11 in 10.0 mi SW 2.3 mph - N/A   Scattered Clouds
9:58 PM 80.1 °F 84.4 °F 73.4 °F 80% 30.12 in 10.0 mi NNW 3.5 mph - N/A   Scattered Clouds
10:58 PM 77.2 °F - 73.4 °F 88% 30.14 in 10.0 mi East 2.3 mph - N/A   Partly Cloudy
11:58 PM 77.4 °F - 73.6 °F 88% 30.13 in 10.0 mi NNW 3.5 mph - N/A   Clear